Regional Weather Roundup
Issued by NWS

Home | Current Version | Previous Version | Graphics & Text | Print | Product List | Glossary On
Versions: 1 2 3 4 5 6 7 8 9 10 11 12 13 14 15 16 17 18 19 20 21 22 23 24 25 26 27 28 29 30 31 32 33 34 35 36 37 38 39 40 41 42 43 44 45 46 47 48 49 50
000
ASUS43 KLMK 280902
RWRKY
KENTUCKY REGIONAL WEATHER ROUNDUP
NATIONAL WEATHER SERVICE LOUISVILLE KY
500 AM EDT WED JUN 28 2017

NOTE "FAIR" INDICATES FEW OR NO CLOUDS BELOW 12,000 FEET
WITH NO SIGNIFICANT WEATHER AND/OR OBSTRUCTIONS TO VISIBILITY.

KYZ001>023-026-027-061>063-070>075-281000-
WESTERN AND SOUTH CENTRAL KENTUCKY

CITY           SKY/WX    TMP DP  RH WIND       PRES   REMARKS
PADUCAH        CLEAR     64  54  69 SE8       30.03F
HENDERSON      CLEAR     60  53  77 SE9       30.05F
OWENSBORO      CLEAR     59  54  83 SE7       30.07F
HOPKINSVILLE   CLEAR     59  54  85 E5        30.09S
BOWLING GREEN  CLEAR     57  56  96 CALM      30.11S
GLASGOW        NOT AVBL
$$

KYZ024-025-028>034-038-045-046-053-281000-
NORTH CENTRAL KENTUCKY

CITY           SKY/WX    TMP DP  RH WIND       PRES   REMARKS
LOUISVILLE/SDF CLEAR     62  52  69 SE3       30.11S
LOUISVILLE/LOU CLEAR     58  53  84 CALM      30.12S
FORT KNOX      CLEAR     54  54  99 CALM      30.10S
$$

KYZ035>037-039>044-047>052-055>060-089>105-281000-
NORTHEAST KENTUCKY

CITY           SKY/WX    TMP DP  RH WIND       PRES   REMARKS
LEXINGTON      PTCLDY    56  48  74 SE5       30.14S
COVINGTON      CLEAR     53  50  89 CALM      30.13S
FRANKFORT      CLEAR     54  49  83 CALM      30.12S
$$

KYZ054-064>069-076>088-106>120-281000-
SOUTHEAST KENTUCKY

CITY           SKY/WX    TMP DP  RH WIND       PRES   REMARKS
JACKSON        CLEAR     56  49  77 SE3       30.16S
LONDON         PTCLDY    53  50  89 CALM      30.15S
SOMERSET       PTCLDY    50  50 100 CALM      30.15S
MIDDLESBORO    CLEAR     50  50 100 CALM      30.19R
MONTICELLO     MOSUNNY   50  49  96 NE7       30.16S
$$





USA.gov is the U.S. government's official web portal to all federal, state and local government web resources and services.